Vorticity
nan nan nan nan nan nan nan nan nan nan nan nan nan nan nan nan nan nan nan nan nan nan nan nan nan nan nan nan nan nan nan nan nan nan nan nan nan nan nan nan nan nan nan nan nan nan nan nan nan nan nan nan nan nan nan nan nan nan nan nan nan nan nan nan nan nan nan nan nan
nan 10 10 10 9 9 9 10 10 11 11 10 10 10 10 9 9 10 10 10 9 9 9 9 9 9 8 7 7 7 7 7 7 7 7 7 8 8 8 8 8 8 7 7 7 7 8 9 9 9 9 8 8 8 8 8 7 8 8 8 7 6 5 5 5 4 4 5 nan
nan 10 10 9 8 7 8 10 10 10 10 10 10 10 9 9 9 10 10 11 10 9 8 8 9 9 8 7 7 8 8 8 8 7 7 7 8 8 8 8 8 7 7 7 8 10 10 9 7 8 9 9 9 8 7 7 7 6 6 5 5 6 6 6 6 5 5 6 nan
nan 9 9 9 8 7 7 8 8 9 9 10 10 10 10 9 9 10 10 10 9 8 8 8 9 8 8 8 9 9 9 9 8 8 7 8 8 8 8 8 7 7 7 8 9 9 9 7 6 7 9 9 7 6 6 7 6 5 5 5 6 6 6 7 7 7 7 8 nan
nan 9 9 9 9 8 7 8 8 8 9 10 10 10 10 10 10 10 9 9 8 8 8 8 7 8 9 10 10 9 9 8 7 7 8 8 7 7 7 7 6 6 7 7 7 7 6 4 5 7 8 6 5 7 8 7 5 5 5 5 6 6 6 6 7 7 7 7 nan
nan 9 8 8 8 8 9 9 9 9 9 10 9 8 8 9 9 9 8 8 9 9 8 8 7 9 10 9 8 7 7 7 7 8 8 7 7 7 7 6 6 6 6 6 6 4 3 2 4 7 7 6 7 8 8 6 4 5 5 5 6 7 7 6 6 7 7 5 nan
nan 8 8 8 8 8 8 8 10 10 9 10 10 9 8 8 8 8 7 8 8 8 8 8 9 8 9 8 7 7 7 7 8 8 7 6 7 7 6 5 5 5 6 5 4 2 2 1 4 7 7 6 8 11 8 5 4 5 5 5 6 7 8 7 6 7 8 7 nan
nan 9 9 8 8 9 9 9 9 9 8 9 11 11 9 8 8 8 7 7 8 8 7 9 10 8 7 7 7 7 7 7 7 7 6 7 7 6 5 5 5 5 5 4 3 2 2 2 4 7 7 6 8 11 11 7 3 3 4 4 4 6 7 7 7 7 9 9 nan
nan 11 11 10 10 10 10 11 10 8 7 8 10 10 10 9 9 8 7 7 8 8 7 9 10 8 7 6 6 6 7 8 7 7 6 7 6 5 4 5 5 5 5 5 5 4 1 2 4 6 6 6 7 10 12 10 4 3 2 5 6 6 5 6 6 6 7 9 nan
nan 9 11 12 11 11 11 11 11 10 9 9 10 9 9 9 8 7 6 7 9 8 7 8 9 8 7 7 6 6 6 7 8 8 6 6 6 5 4 4 5 5 5 6 6 6 3 3 4 5 5 5 6 8 10 10 7 4 2 4 7 7 6 6 8 8 7 9 nan
nan 9 10 11 12 12 12 12 12 11 10 10 10 10 9 8 8 7 6 7 9 9 7 7 8 8 7 8 7 6 6 6 7 8 8 7 6 5 4 4 5 5 6 6 7 7 6 5 5 5 4 4 7 9 10 10 9 7 4 3 6 8 9 9 10 11 11 11 nan
nan 9 10 10 11 12 12 11 10 11 10 10 10 10 9 9 9 7 7 7 7 8 8 8 8 7 7 7 8 7 6 6 6 7 8 7 6 5 4 4 5 5 6 7 7 7 7 6 5 6 6 5 7 10 11 11 10 10 8 6 8 9 11 11 10 10 11 12 nan
nan 10 10 11 12 12 11 10 9 10 11 10 10 9 9 10 10 9 8 7 6 7 9 10 9 8 7 7 8 7 7 6 6 6 6 6 6 6 5 5 6 6 8 9 8 7 6 6 7 7 8 8 7 8 11 12 12 12 12 11 11 10 11 11 10 9 9 10 nan
nan 10 10 11 12 12 11 10 9 10 11 10 9 9 9 10 10 9 8 7 6 6 8 10 10 9 8 7 7 7 6 6 6 5 5 5 5 5 6 6 7 8 9 10 10 9 8 8 9 10 10 10 9 9 10 12 12 12 12 12 11 10 10 10 10 9 10 9 nan
nan 11 12 12 12 11 10 10 10 11 12 11 10 10 9 10 10 9 7 6 6 7 8 8 9 9 9 8 8 8 7 7 7 6 6 6 6 7 7 8 10 11 11 11 12 12 12 12 13 13 12 12 11 11 12 13 12 11 11 11 10 9 9 9 9 9 9 8 nan
nan 13 13 13 11 9 8 8 9 11 12 11 11 10 9 9 9 8 7 6 7 7 7 7 8 9 10 10 10 10 10 9 9 9 9 9 9 10 11 11 11 12 12 12 12 13 14 15 15 15 14 13 12 12 13 13 12 11 10 9 9 8 8 9 9 8 8 7 nan
nan 13 14 13 10 8 7 6 7 9 11 12 11 10 9 9 8 8 8 7 6 6 6 7 8 9 10 10 11 12 12 12 12 12 12 12 12 12 12 11 12 12 12 12 12 13 14 15 15 15 14 12 11 11 12 12 11 11 10 9 9 9 8 8 8 9 9 8 nan
nan 14 14 13 11 10 10 9 8 9 11 13 12 11 10 9 8 8 7 7 6 6 7 8 9 9 9 10 11 12 12 12 12 13 13 13 13 12 11 11 11 12 12 12 11 11 12 13 14 13 12 11 10 10 10 10 10 10 10 9 9 9 9 8 8 9 9 9 nan
nan 13 14 13 13 14 14 14 13 13 14 14 14 12 11 10 9 8 7 7 7 8 9 10 10 10 9 10 10 11 11 11 11 12 13 14 13 11 10 10 11 11 11 11 11 11 10 11 11 11 10 10 9 9 9 9 9 9 9 10 10 9 9 9 9 9 9 9 nan
nan 14 15 16 17 18 18 18 17 16 16 15 14 13 12 11 10 9 8 8 8 9 10 10 9 9 8 8 8 10 11 10 9 11 13 13 12 11 11 11 11 11 11 11 10 10 9 9 9 9 9 9 8 9 9 9 9 9 9 10 10 10 9 9 10 10 10 10 nan
nan 16 17 19 21 21 21 21 19 17 16 15 14 14 13 12 12 11 10 10 10 10 10 10 9 9 9 8 9 10 12 11 9 11 12 13 12 12 12 11 11 10 10 10 10 9 9 8 8 8 9 9 8 9 9 9 9 9 9 9 9 9 9 10 10 11 11 12 nan
nan 19 20 22 23 24 23 22 20 18 16 15 15 14 13 13 14 14 14 15 14 14 14 13 12 12 12 12 12 12 14 12 11 13 13 13 13 12 12 11 11 10 10 10 10 10 9 9 8 8 8 9 8 8 8 8 8 9 9 8 8 9 10 10 11 11 11 12 nan
nan 21 23 22 22 23 22 20 18 16 16 14 14 13 13 13 15 16 17 18 17 17 18 17 15 15 15 16 15 15 15 14 14 14 14 13 13 12 12 12 10 10 10 10 10 10 10 10 10 10 9 9 9 9 9 9 9 9 9 9 9 10 10 10 10 10 10 10 nan
nan 21 21 17 14 16 16 15 14 13 12 11 11 11 11 12 13 14 14 15 15 15 18 17 14 14 15 16 16 16 15 14 13 13 13 13 12 12 13 12 11 10 11 10 7 7 8 9 10 11 11 10 10 10 10 10 10 9 10 10 10 10 10 9 8 8 8 8 nan
nan 15 14 11 9 10 10 10 9 9 9 8 8 9 9 9 9 10 9 9 10 11 12 13 13 13 12 12 12 12 12 11 10 9 9 9 9 10 11 11 11 11 11 7 4 4 6 7 7 9 10 10 10 11 11 11 11 11 11 10 10 9 9 8 8 7 7 7 nan
nan 10 9 8 8 8 7 7 7 7 6 6 7 7 7 7 7 6 7 7 8 9 10 11 12 11 10 8 7 8 9 8 7 6 6 6 6 8 9 11 11 11 8 3 2 4 6 7 8 9 9 10 11 11 11 12 12 11 10 9 9 8 7 7 7 7 7 7 nan
nan 9 8 7 6 6 6 6 5 5 5 5 6 6 7 7 6 5 5 7 8 9 11 11 11 10 8 6 5 6 7 7 6 6 6 6 7 8 9 11 11 9 5 1 2 6 8 10 11 11 11 11 12 12 11 11 11 11 9 8 7 6 6 5 6 7 8 7 nan
nan 8 7 7 6 5 5 5 5 5 5 5 5 6 6 6 6 6 6 7 9 10 12 12 10 10 8 5 4 5 6 7 8 8 8 8 8 9 10 10 9 6 2 1 5 8 10 11 12 12 13 13 14 13 11 10 10 9 9 8 7 6 6 7 8 8 8 8 nan
nan 7 6 6 6 5 5 4 5 5 5 5 5 6 5 5 6 6 7 8 11 11 12 11 9 7 6 5 5 6 7 9 10 10 9 8 9 9 9 9 8 6 3 4 8 10 12 12 12 13 13 13 14 12 9 8 7 7 7 7 6 5 6 7 7 8 9 11 nan
nan 6 6 5 5 5 5 4 4 4 5 5 4 5 5 5 5 6 8 10 12 11 10 8 6 5 5 6 7 8 9 11 11 10 9 8 9 10 10 10 9 7 5 6 9 11 12 13 12 12 12 13 12 9 7 6 5 6 6 5 4 5 6 8 8 9 10 10 nan
nan 6 5 5 5 5 5 4 4 4 4 4 4 5 5 5 6 8 9 12 12 10 8 6 5 5 7 9 9 9 9 10 10 10 9 9 10 9 9 10 10 9 6 6 9 11 12 12 12 11 10 11 10 8 6 5 5 5 5 4 4 6 9 11 12 11 9 8 nan
nan 5 4 5 5 5 5 6 6 5 5 4 5 6 7 7 9 10 11 12 10 9 7 7 7 7 8 10 10 9 10 10 10 10 9 9 9 10 10 11 12 10 6 5 9 11 12 12 11 10 9 9 9 8 7 6 7 8 7 7 8 9 10 10 9 9 9 10 nan
nan 4 4 5 5 6 7 7 8 8 8 7 8 9 9 11 12 12 13 13 11 9 8 7 8 9 9 10 10 10 11 10 9 9 9 9 10 10 12 14 13 8 4 4 8 10 11 11 11 9 8 9 11 10 9 8 9 9 8 8 9 10 10 9 9 9 10 10 nan
nan 4 5 5 7 7 8 9 10 10 11 11 11 11 12 12 13 13 14 13 11 9 8 8 9 10 10 10 10 10 10 9 8 8 9 10 11 11 13 14 10 4 1 4 8 9 10 11 10 9 9 13 16 13 11 10 9 7 6 7 8 10 11 12 11 11 10 10 nan
nan 5 5 6 8 9 10 10 11 12 12 13 12 12 12 12 12 12 12 12 10 9 9 9 10 10 10 10 10 9 9 8 8 8 9 10 11 11 11 10 6 2 2 5 7 9 10 10 10 11 13 19 18 14 12 12 11 9 8 8 10 11 11 12 12 11 11 11 nan
nan 5 6 8 9 10 10 11 11 12 12 11 11 10 10 10 10 10 10 10 9 8 9 10 10 10 9 10 10 9 9 9 9 10 10 10 10 10 10 8 6 4 5 6 7 7 8 9 10 12 17 21 18 13 12 14 13 11 10 11 11 11 12 12 12 11 12 11 nan
nan 7 8 9 10 10 10 11 11 11 10 10 9 9 8 8 9 9 10 9 8 9 9 10 10 10 9 10 10 9 9 10 11 11 11 10 10 9 8 7 6 6 6 6 5 6 7 8 10 14 19 20 15 12 13 13 12 11 11 12 13 12 13 14 14 13 12 11 nan
nan 9 9 10 10 10 10 10 10 10 9 9 9 8 8 9 9 10 10 9 8 9 9 10 10 10 9 10 10 10 10 11 12 12 11 10 10 9 7 7 7 7 6 4 4 6 7 8 10 13 18 18 14 14 14 13 10 9 11 13 12 12 13 14 14 13 12 9 nan
nan 11 11 11 10 10 10 10 10 9 9 9 8 8 9 9 10 10 10 10 9 9 9 9 9 9 9 10 11 10 11 13 14 13 11 9 9 8 7 7 7 6 5 4 4 6 7 8 10 12 18 19 16 15 14 11 9 9 11 12 11 11 13 13 13 12 11 9 nan
nan 12 12 11 10 10 10 10 10 10 9 8 8 8 9 9 9 9 10 10 10 10 9 9 9 9 10 11 11 11 11 12 13 12 11 9 8 9 9 8 7 7 6 5 5 6 6 8 9 13 20 21 17 15 13 10 9 9 10 10 11 11 12 12 12 11 10 11 nan
nan nan nan nan nan nan nan nan nan nan nan nan nan nan nan nan nan nan nan nan nan nan nan nan nan nan nan nan nan nan nan nan nan nan nan nan nan nan nan nan nan nan nan nan nan nan nan nan nan nan nan nan nan nan nan nan nan nan nan nan nan nan nan nan nan nan nan nan nan
CAPE
nan nan nan nan nan nan nan nan nan nan nan nan nan nan nan nan nan nan nan nan nan nan nan nan nan nan nan nan nan nan nan nan nan nan nan nan nan nan nan nan nan nan nan nan nan nan 0 0 0 0 nan 2 3 6 6 6 5 5 5 5 5 5 5 5 6 6 5 4 6
nan nan nan nan nan nan nan nan nan nan nan nan nan nan nan nan nan nan nan nan nan nan nan nan nan nan nan nan nan nan nan nan nan nan nan nan nan nan nan nan nan nan nan nan nan nan nan 0 nan nan 0 2 4 7 7 9 7 5 5 5 5 6 6 4 3 3 4 4 6
nan nan nan nan nan nan nan nan nan nan nan nan nan nan nan nan nan nan nan nan nan nan nan nan nan nan nan nan nan nan nan nan nan nan nan nan nan nan nan nan nan nan nan nan nan nan nan nan nan nan 0 3 4 5 5 8 8 9 9 6 7 6 6 7 9 9 10 11 10
nan nan nan nan nan nan nan nan nan nan nan nan nan nan nan nan nan nan nan nan nan nan nan nan nan nan nan nan nan nan nan nan nan nan nan nan nan nan nan nan nan nan nan nan nan nan 0 0 0 0 1 2 5 6 6 11 13 12 12 11 11 8 8 9 15 15 17 14 13
nan nan nan nan nan nan nan nan nan nan nan nan nan nan nan nan nan nan nan nan nan nan nan nan nan nan nan nan nan nan nan nan nan nan nan nan nan nan nan nan nan nan nan 0 1 1 1 1 1 1 2 3 4 2 2 9 13 12 12 11 9 11 11 12 12 12 13 13 17
nan nan nan nan nan nan nan nan nan nan nan nan nan nan nan nan nan nan nan nan nan nan nan nan nan nan nan nan nan nan nan nan nan nan nan nan nan nan nan nan nan 0 0 0 1 1 1 0 0 0 1 2 2 4 4 6 6 7 7 10 10 13 13 12 14 14 15 12 16
nan nan nan nan nan nan nan nan nan nan nan nan nan nan nan nan nan nan nan nan nan nan nan nan nan nan nan nan nan nan nan nan nan nan nan nan nan nan nan nan nan nan nan nan 0 0 1 0 0 0 0 nan 2 3 3 2 4 4 4 7 8 15 15 12 14 14 17 14 11
nan nan nan nan nan nan nan nan nan nan nan nan nan nan nan nan nan nan nan nan nan nan nan nan nan nan nan nan nan nan nan nan nan nan nan nan nan nan nan nan nan nan nan nan nan nan nan 0 0 0 1 1 1 2 2 1 3 4 4 5 7 6 6 5 6 6 10 8 7
nan nan nan nan nan nan nan nan nan nan nan nan nan nan nan nan nan nan nan nan nan nan nan nan nan nan nan nan nan nan nan nan nan nan nan nan nan nan nan nan nan nan nan nan nan nan nan nan nan nan nan nan 0 0 0 0 0 0 0 2 4 3 3 2 2 2 4 3 3
nan nan nan nan nan nan nan nan nan nan nan nan nan nan nan nan nan nan nan nan nan nan nan nan nan nan nan nan nan nan nan nan nan nan nan nan nan nan nan nan nan nan nan nan nan nan nan nan nan nan nan nan nan nan nan nan nan 0 0 0 0 5 5 5 8 8 8 3 3
nan nan nan nan nan nan nan nan nan nan nan nan nan nan nan nan nan nan nan nan nan nan nan nan nan nan nan nan nan nan nan nan nan nan nan nan nan nan nan nan nan nan nan nan nan nan nan nan nan nan nan nan nan nan nan nan nan nan nan nan nan nan nan nan nan nan nan nan 0
nan nan nan nan nan nan nan nan nan nan nan nan nan nan nan nan nan nan nan nan nan nan nan nan nan nan nan nan nan nan nan nan nan nan nan nan nan nan nan nan nan nan nan nan nan nan nan nan nan nan nan nan nan nan nan nan nan nan nan nan nan nan nan nan nan nan nan nan nan
nan nan nan nan nan nan nan nan nan nan nan nan nan nan nan nan nan nan nan nan nan nan nan nan nan nan nan nan nan nan nan nan nan nan nan nan nan nan nan nan nan nan nan nan nan nan nan nan nan nan nan nan nan nan nan nan nan nan nan nan nan nan nan nan nan nan nan nan nan
nan nan nan nan nan nan nan nan nan nan nan nan nan nan nan nan nan nan nan nan nan nan nan nan nan nan nan nan nan nan nan nan nan nan nan nan nan nan nan nan nan nan nan nan nan nan nan nan nan nan nan nan nan nan nan nan nan nan nan nan nan nan nan nan nan nan nan nan nan
nan nan nan nan nan nan nan nan nan nan nan nan nan nan nan nan nan nan nan nan nan nan nan nan nan nan nan nan nan nan nan nan nan nan nan nan nan nan nan nan nan nan nan nan nan nan nan nan nan nan nan nan nan nan nan nan nan nan nan nan nan nan nan nan nan nan nan nan nan
nan nan nan nan nan nan nan nan nan nan nan nan nan nan nan nan nan nan nan nan nan nan nan nan nan nan nan nan nan nan nan nan nan nan nan nan nan nan nan nan nan nan nan nan nan nan nan nan nan nan nan nan nan nan nan nan nan nan nan nan nan nan nan nan nan nan nan nan nan
nan nan nan nan nan nan nan nan nan nan nan nan nan nan nan nan nan nan nan nan nan nan nan nan nan nan nan nan nan nan nan nan nan nan nan nan nan nan nan nan nan nan nan nan nan nan nan nan nan nan nan nan nan nan nan nan nan nan nan nan nan nan nan nan nan nan nan nan nan
nan nan nan nan nan nan nan nan nan nan nan nan nan nan nan nan nan nan nan nan nan nan nan nan nan nan nan nan nan nan nan nan nan nan nan nan nan nan nan nan nan nan nan nan nan nan nan nan nan nan nan nan nan nan nan nan nan nan nan nan nan nan nan nan nan nan nan nan nan
nan nan nan nan nan nan nan nan nan nan nan nan nan nan nan nan nan nan nan nan nan nan nan nan nan nan nan nan nan nan nan nan nan nan nan nan nan nan nan nan nan nan nan nan nan nan nan nan nan nan nan nan nan nan nan nan nan nan nan nan nan nan nan nan nan nan nan nan nan
nan nan nan nan nan nan nan nan nan nan nan nan nan nan nan nan nan nan nan nan nan nan nan nan nan nan nan nan nan nan nan nan nan nan nan nan nan nan nan nan nan nan nan nan nan nan nan nan nan nan nan nan nan nan nan nan nan nan nan nan nan nan nan nan nan nan nan nan nan
nan nan nan nan nan nan nan nan nan nan nan nan nan nan nan nan nan nan nan nan nan nan nan nan nan nan nan 0 1 1 2 3 1 0 0 nan nan nan nan nan nan nan nan nan nan nan nan nan nan nan nan nan nan nan nan nan nan nan nan nan nan nan nan nan nan nan nan nan nan
nan nan nan nan nan nan nan nan nan nan nan nan nan nan nan nan nan nan nan nan nan nan nan 0 2 3 3 4 3 3 3 3 1 1 1 0 nan nan nan nan nan nan nan nan nan nan nan nan nan nan nan nan nan nan nan nan nan nan nan nan nan nan nan nan nan nan nan nan nan
nan nan nan nan nan nan nan nan nan nan nan nan nan nan nan 1 2 3 3 3 5 8 8 9 9 6 6 4 2 2 1 1 1 0 0 nan nan nan nan nan nan nan nan nan nan nan nan nan nan nan nan nan nan nan nan nan nan nan nan nan nan nan nan nan nan nan nan nan nan
nan nan nan nan nan nan nan nan nan nan nan nan 0 0 0 1 2 3 3 4 5 4 4 4 5 5 5 1 0 0 0 0 nan nan nan nan nan nan nan nan nan nan nan nan nan nan nan nan nan nan nan nan nan nan nan nan nan nan nan nan nan nan nan nan nan nan nan nan nan
nan nan nan nan nan nan nan nan nan nan nan nan nan nan nan nan 0 1 1 1 1 0 0 1 0 2 2 0 nan nan nan nan nan nan nan nan nan nan nan nan nan nan nan nan nan nan nan nan nan nan nan nan nan nan nan nan nan nan nan nan nan nan nan nan nan nan nan nan nan
nan nan nan nan nan nan nan nan nan nan nan nan nan nan nan nan 0 0 0 2 2 3 3 2 1 0 0 nan nan nan nan nan nan nan nan nan nan nan nan nan nan nan nan nan nan nan nan nan nan nan nan nan nan nan nan nan nan nan nan nan nan nan nan nan nan nan nan nan nan
nan nan nan nan nan nan nan nan nan nan nan nan nan nan nan 0 0 0 0 1 2 8 8 4 5 1 1 nan nan nan nan nan nan nan nan nan nan nan nan nan nan nan nan nan nan nan nan nan nan nan nan nan nan nan nan nan nan nan nan nan nan nan nan nan nan nan nan nan nan
nan nan nan nan nan nan nan nan nan nan nan nan nan nan nan 0 0 0 0 0 1 10 10 6 4 2 2 nan nan nan nan nan nan nan nan nan nan nan nan nan nan nan nan nan nan nan nan nan nan nan nan nan 1 0 0 nan nan nan nan nan nan nan nan nan nan nan nan nan nan
nan nan nan nan nan nan nan nan nan nan nan nan nan nan nan nan nan 0 0 0 1 7 7 4 2 0 0 nan nan nan nan nan nan nan nan nan nan nan nan nan nan nan nan nan nan nan nan nan nan nan nan nan 2 1 1 nan nan nan nan nan nan nan nan nan nan nan nan nan nan
nan nan nan nan nan nan nan nan nan nan nan nan nan nan nan nan nan nan nan nan 0 1 1 nan nan nan nan nan nan nan nan nan nan nan nan nan nan nan nan nan nan nan nan nan nan nan nan nan nan nan nan nan 1 2 2 0 nan nan nan nan nan nan nan nan nan nan nan nan nan
nan nan nan nan nan nan nan nan nan nan nan nan nan nan nan nan nan nan nan nan nan nan nan nan nan nan nan nan nan nan nan nan nan nan nan nan nan nan nan nan nan nan nan nan nan nan nan nan nan nan nan nan nan 3 3 1 nan nan nan nan nan nan nan nan nan nan nan nan 0
nan nan nan nan nan nan nan nan nan nan nan nan nan nan nan nan nan 0 0 nan nan nan nan nan nan nan nan nan nan nan nan nan nan nan nan nan nan nan nan nan nan nan nan nan nan nan nan nan nan nan nan nan nan 9 9 3 0 nan nan nan nan nan nan 0 0 0 0 1 1
nan nan nan nan nan nan nan nan nan nan nan nan nan nan nan nan 0 0 0 nan nan nan nan nan nan nan nan nan nan nan nan nan nan nan nan nan nan nan nan nan nan nan nan nan nan nan nan nan nan nan nan nan 1 9 9 5 2 nan nan nan 0 0 0 1 2 2 2 3 2
nan nan nan nan nan nan nan nan nan nan nan nan nan nan nan nan nan nan nan nan nan nan nan nan nan nan nan nan nan nan nan nan nan nan nan nan nan nan nan nan nan nan nan nan nan nan nan nan nan nan nan nan 5 4 4 3 2 0 0 0 0 2 2 5 7 7 7 6 6
nan nan nan nan nan nan nan nan nan nan nan nan nan nan nan nan nan nan nan nan nan nan nan nan nan nan nan nan nan nan nan nan nan nan nan nan nan nan nan nan nan nan nan nan nan nan nan nan nan nan nan nan 8 7 7 2 0 0 0 1 2 8 8 12 12 12 12 9 7
nan nan nan nan nan nan nan nan nan nan nan nan nan nan nan nan nan nan nan nan nan nan nan nan nan nan nan nan nan nan nan nan nan nan nan nan nan nan nan nan nan nan nan nan nan nan nan nan nan nan nan nan 6 5 5 2 1 2 2 2 5 10 10 15 15 15 12 11 10
nan 1 1 nan nan nan nan nan nan nan nan nan nan nan nan nan nan nan nan nan nan nan nan nan nan nan nan nan nan nan nan nan nan nan nan nan nan nan nan nan nan nan nan nan nan nan nan nan nan nan nan 1 3 3 3 3 3 4 4 5 6 10 10 16 16 16 15 16 17
nan 0 0 nan nan nan nan nan nan nan nan nan nan nan nan nan nan nan nan nan nan nan nan nan nan nan nan nan nan nan nan nan nan nan nan nan nan nan nan nan nan nan nan nan nan nan nan nan nan nan nan 1 2 3 3 6 9 8 8 8 8 14 14 12 10 10 13 17 11
nan nan nan nan nan nan nan nan nan nan nan nan nan nan nan nan nan nan nan nan nan nan nan nan nan nan nan nan nan nan nan nan nan nan nan nan nan nan nan nan nan nan nan nan nan nan nan nan nan nan 0 5 6 8 8 11 14 14 14 13 12 13 13 11 9 9 10 15 10
nan nan nan nan nan nan nan nan nan nan nan nan nan nan nan nan nan nan nan nan nan nan nan nan nan nan nan nan nan nan nan nan nan nan nan nan nan nan nan nan nan nan nan nan nan nan nan nan nan nan 2 9 12 17 17 18 19 18 18 14 10 10 10 8 9 9 10 16 13
nan nan nan nan nan nan nan nan nan nan nan nan nan nan nan nan nan nan nan nan nan nan nan nan nan nan nan nan nan nan nan nan nan nan nan nan nan nan nan nan nan nan nan nan nan nan nan nan nan nan 4 15 19 25 25 25 21 16 16 11 9 8 8 7 10 10 15 18 21